Date String (YYYY-MM-DD hh:mm:ss) UTC,Instrument flags,Ambient pressure (hPa),Sample flow (lpm),Bypass flow (lpm),Sample temperature (°C),Ambient temperature (°C),ASC tube jacket temperature (°C),LED temperature (°C),Box temperature (°C),Sample RH (%),Span deviation,Mass concentration (μg/m³),Mass concentration (μg/m³),Mass concentration (μg/m³)
DateTimeUTC,F1_M11,P_M11,Q1_M11,Q2_M11,T1_M11,T2_M11,T3_M11,T4_M11,T5_M11,U1_M11,ZSPAN_M11,X2_M11,X0_M11,X1_M11
2022-05-25 13:00:00,,0826.8,4.99,0.00,24.9,23.8,00.0,33.8,26.8,20.2,0000.0,0001.70,0002.25,0001.47
2022-05-25 13:01:00,,0826.8,5.01,0.00,24.9,23.8,00.0,33.8,26.8,20.8,0000.0,0001.70,0002.30,0001.47
2022-05-25 13:02:00,,0826.8,5.00,0.00,24.9,23.8,00.0,33.8,26.8,20.6,0000.0,0001.72,0002.33,0001.47
2022-05-25 13:03:00,,0826.9,5.00,0.00,24.9,23.8,00.0,33.8,26.8,20.1,0000.0,0001.69,0002.26,0001.46
2022-05-25 13:04:00,,0826.8,5.01,0.00,24.9,23.8,00.0,33.8,26.8,20.0,0000.0,0001.67,0002.22,0001.45
2022-05-25 13:05:00,,0826.8,4.99,0.00,24.9,23.8,00.0,33.8,26.8,20.2,0000.0,0001.70,0002.28,0001.46
2022-05-25 13:06:00,,0826.9,5.00,0.00,24.9,23.8,00.0,33.8,26.8,19.8,0000.0,0001.70,0002.38,0001.45
2022-05-25 13:07:00,,0826.8,5.01,0.00,24.9,23.9,00.0,33.8,26.8,19.5,0000.0,0001.68,0002.34,0001.45
2022-05-25 13:08:00,,0826.8,4.99,0.00,24.9,23.9,00.0,33.8,26.8,19.5,0000.0,0001.67,0002.39,0001.45
2022-05-25 13:09:00,,0826.8,5.00,0.00,24.9,23.9,00.0,33.8,26.8,19.9,0000.0,0001.66,0002.40,0001.45
2022-05-25 13:10:00,,0826.8,5.00,0.00,24.9,23.9,00.0,33.8,26.8,20.1,0000.0,0001.68,0002.45,0001.45
2022-05-25 13:11:00,,0826.8,5.00,0.00,24.9,23.9,00.0,33.8,26.8,20.0,0000.0,0001.70,0002.44,0001.44
2022-05-25 13:12:00,,0826.7,4.99,0.00,24.9,23.9,00.0,33.8,26.8,20.5,0000.0,0001.70,0002.43,0001.45
2022-05-25 13:13:00,,0826.7,5.01,0.00,24.9,23.9,00.0,33.8,26.8,20.4,0000.0,0001.73,0002.54,0001.45
2022-05-25 13:14:00,,0826.7,5.00,0.00,24.9,23.9,00.0,33.8,26.8,19.8,0000.0,0001.79,0002.71,0001.45
2022-05-25 13:15:00,,0826.7,4.99,0.00,24.9,23.9,00.0,33.8,26.9,19.3,0000.0,0001.82,0002.89,0001.46
2022-05-25 13:16:00,,0826.7,5.01,0.00,24.9,23.9,00.0,33.8,26.9,19.7,0000.0,0001.83,0002.92,0001.46
2022-05-25 13:17:00,,0826.7,4.99,0.00,24.9,23.9,00.0,33.8,26.9,20.1,0000.0,0001.86,0002.90,0001.48
2022-05-25 13:18:00,,0826.7,5.00,0.00,24.9,23.9,00.0,33.8,26.9,19.5,0000.0,0001.88,0002.92,0001.49
2022-05-25 13:19:00,,0826.7,5.01,0.00,24.9,23.9,00.0,33.9,26.9,19.2,0000.0,0001.89,0002.91,0001.49
2022-05-25 13:20:00,,0826.7,5.00,0.00,25.0,23.9,00.0,33.9,26.9,19.6,0000.0,0001.88,0002.83,0001.49
2022-05-25 13:21:00,,0826.7,5.00,0.00,24.9,23.9,00.0,33.9,26.9,19.6,0000.0,0001.88,0002.80,0001.50
2022-05-25 13:22:00,,0826.7,5.00,0.00,25.0,23.9,00.0,33.9,26.9,18.9,0000.0,0001.84,0002.74,0001.50
2022-05-25 13:23:00,,0826.7,5.01,0.00,25.0,24.0,00.0,33.9,26.9,18.8,0000.0,0001.85,0002.75,0001.49
2022-05-25 13:24:00,,0826.7,4.99,0.00,25.0,24.0,00.0,33.9,26.9,18.5,0000.0,0001.84,0002.76,0001.49
2022-05-25 13:25:00,,0826.7,5.00,0.00,25.0,24.0,00.0,33.9,26.9,17.9,0000.0,0001.77,0002.59,0001.47
2022-05-25 13:26:00,,0826.7,5.01,0.00,25.0,24.0,00.0,33.9,26.9,17.9,0000.0,0001.72,0002.39,0001.45
2022-05-25 13:27:00,,0826.7,5.00,0.00,25.0,24.0,00.0,33.9,26.9,17.5,0000.0,0001.71,0002.37,0001.43
2022-05-25 13:28:00,,0826.7,5.01,0.00,25.0,24.0,00.0,33.9,26.9,18.6,0000.0,0001.67,0002.30,0001.40
2022-05-25 13:29:00,,0826.8,5.00,0.00,25.0,24.0,00.0,33.9,26.9,18.4,0000.0,0001.66,0002.29,0001.39
2022-05-25 13:30:00,,0826.8,5.00,0.00,25.0,24.0,00.0,33.9,26.9,19.1,0000.0,0001.66,0002.30,0001.38
2022-05-25 13:31:00,,0826.8,5.01,0.00,25.0,24.0,00.0,33.9,26.9,19.0,0000.0,0001.63,0002.25,0001.37
2022-05-25 13:32:00,,0826.8,5.00,0.00,25.0,24.0,00.0,33.9,26.9,19.0,0000.0,0001.63,0002.27,0001.35
2022-05-25 13:33:00,,0826.8,5.00,0.00,25.0,24.0,00.0,33.9,26.9,17.9,0000.0,0001.61,0002.26,0001.34
2022-05-25 13:34:00,,0826.8,4.99,0.00,25.0,24.0,00.0,33.9,27.0,19.7,0000.0,0001.60,0002.52,0001.34
2022-05-25 13:35:00,,0826.8,5.01,0.00,25.0,24.0,00.0,33.9,27.0,20.2,0000.0,0001.60,0002.74,0001.35
2022-05-25 13:36:00,,0826.8,4.99,0.00,25.0,24.1,00.0,33.9,27.0,20.6,0000.0,0001.60,0002.74,0001.35
2022-05-25 13:37:00,,0826.8,5.00,0.00,25.0,24.1,00.0,33.9,27.0,21.4,0000.0,0001.63,0002.78,0001.37
2022-05-25 13:38:00,,0826.7,5.01,0.00,25.0,24.1,00.0,33.9,27.0,20.5,0000.0,0001.63,0002.75,0001.39
2022-05-25 13:39:00,,0826.8,4.99,0.00,25.0,24.1,00.0,33.9,27.0,20.3,0000.0,0001.63,0002.72,0001.40
2022-05-25 13:40:00,,0826.8,5.01,0.00,25.0,24.1,00.0,33.9,27.0,20.4,0000.0,0001.64,0002.73,0001.41
2022-05-25 13:41:00,,0826.9,4.99,0.00,25.0,24.1,00.0,33.9,27.0,20.2,0000.0,0001.62,0002.67,0001.43
2022-05-25 13:42:00,,0826.8,5.00,0.00,25.0,24.1,00.0,34.0,27.0,19.7,0000.0,0001.65,0002.73,0001.44
2022-05-25 13:43:00,,0826.8,5.00,0.00,25.0,24.1,00.0,33.9,27.0,20.0,0000.0,0001.66,0002.74,0001.46
2022-05-25 13:44:00,,0826.8,5.00,0.00,25.0,24.1,00.0,34.0,27.0,19.6,0000.0,0001.71,0002.83,0001.48
2022-05-25 13:45:00,,0826.8,4.99,0.00,25.0,24.1,00.0,34.0,27.0,18.9,0000.0,0001.74,0002.61,0001.51
2022-05-25 13:46:00,,0826.8,5.01,0.00,25.1,24.1,00.0,34.0,27.0,18.0,0000.0,0001.71,0002.61,0001.51
2022-05-25 13:47:00,,0826.8,4.99,0.00,25.1,24.1,00.0,34.0,27.0,19.6,0000.0,0001.75,0002.75,0001.53
2022-05-25 13:48:00,,0826.8,5.00,0.00,25.1,24.1,00.0,34.0,27.0,19.6,0000.0,0001.78,0002.84,0001.52
2022-05-25 13:49:00,,0826.8,5.01,0.00,25.1,24.1,00.0,34.0,27.0,19.8,0000.0,0001.79,0002.85,0001.52
2022-05-25 13:50:00,,0826.8,4.99,0.00,25.1,24.0,00.0,34.0,27.0,19.5,0000.0,0001.81,0002.89,0001.53
2022-05-25 13:51:00,,0826.8,5.01,0.00,25.1,24.1,00.0,34.0,27.0,21.1,0000.0,0001.79,0002.86,0001.53
2022-05-25 13:52:00,,0826.8,5.00,0.00,25.1,24.1,00.0,34.0,27.0,21.7,0000.0,0001.81,0002.90,0001.53
2022-05-25 13:53:00,,0826.8,4.99,0.00,25.1,24.1,00.0,34.0,27.0,21.8,0000.0,0001.83,0002.97,0001.54
2022-05-25 13:54:00,,0826.8,5.00,0.00,25.1,24.1,00.0,34.0,27.0,21.3,0000.0,0001.86,0003.08,0001.54
2022-05-25 13:55:00,,0826.7,5.01,0.00,25.1,24.1,00.0,34.0,27.0,21.8,0000.0,0001.81,0002.97,0001.54
2022-05-25 13:56:00,,0826.8,5.00,0.00,25.1,24.0,00.0,34.0,27.0,21.4,0000.0,0001.80,0002.96,0001.53
2022-05-25 13:57:00,,0826.8,5.00,0.00,25.1,24.0,00.0,34.0,27.0,20.2,0000.0,0001.78,0002.68,0001.53
2022-05-25 13:58:00,,0826.9,5.00,0.00,25.1,24.0,00.0,34.0,27.0,20.0,0000.0,0001.80,0002.53,0001.54
2022-05-25 13:59:00,,0826.9,5.00,0.00,25.1,24.0,00.0,34.0,27.0,21.1,0000.0,0001.85,0002.63,0001.56
